Aguacate, Mexico

4:49 AM CST on December 06, 2016 (GMT -0600)
Don Miguel Hidalgo International

Weather History for MMGL - December, 2012

Change the Weather History Date:

Wednesday, December 19, 2012

  Actual Average Record
Temperature  
Mean Temperature 62 °F -  
Max Temperature 78 °F 74 °F 82 °F (2007)
Min Temperature 46 °F 38 °F 28 °F (2003)
Degree Days  
Heating Degree Days 3    
Growing Degree Days 12 (Base 50)    
Moisture  
Dew Point 46 °F    
Average Humidity 63    
Maximum Humidity 100    
Minimum Humidity 24    
Precipitation  
Precipitation 0.00 in - - ()
Sea Level Pressure  
Sea Level Pressure 30.07 in    
Wind  
Wind Speed 2 mph ()    
Max Wind Speed 14 mph    
Max Gust Speed -    
Visibility 7.2 miles    
Events Fog    
Averages and records for this station are not official NWS values.
T = Trace of Precipitation, MM = Missing Value Source: Averaged Metar Reports

Daily Weather History Graph

Daily Weather History Graph

Search for Another Location

Airport or City:

Trip Planner

Search our weather history database for the weather conditions in past years. The results will help you decide how hot, cold, wet, or windy it might be!

Date:

Astronomy

Dec. 19, 2012 Rise Set
Actual Time 7:23 AM CST 6:17 PM CST
Civil Twilight 6:59 AM CST 6:41 PM CST
Nautical Twilight 6:32 AM CST 7:09 PM CST
Astronomical Twilight 6:05 AM CST 7:36 PM CST
Moon 12:23 PM CST (12/19) 12:00 AM CST (12/19)
Length of Visible Light 11h 41m
Length of Day
10h 53m
Waxing Crescent, 45% of the Moon is Illuminated
Dec 19
Waxing Crescent
Dec 19
First Quarter
Dec 28
Full
Jan 4
Last Quarter
Jan 11
New

Hourly Weather History & Observations

Time (CST) Temp. Dew Point Humidity Pressure Visibility Wind Dir Wind Speed Gust Speed Precip Events Conditions
12:50 AM 55.4 °F 50.0 °F 82% 30.14 in 10.0 mi Calm Calm - N/A   Clear
1:52 AM 53.6 °F 50.0 °F 88% 30.14 in 8.0 mi Calm Calm - N/A   Clear
2:52 AM 53.6 °F 50.0 °F 88% 29.88 in 8.0 mi Calm Calm - N/A   Clear
3:46 AM 50.0 °F 46.4 °F 87% 30.12 in 8.0 mi Calm Calm - N/A   Clear
4:48 AM 48.2 °F 46.4 °F 93% 30.12 in 7.0 mi Calm Calm - N/A   Clear
6:12 AM 48.2 °F 46.4 °F 93% 29.92 in 0.5 mi Calm Calm - N/A Fog Fog
6:42 AM 46.4 °F 46.4 °F 100% 30.14 in 1.0 mi Calm Calm - N/A   Clear
7:50 AM 46.4 °F 46.4 °F 100% 30.17 in 1.0 mi Calm Calm - N/A   Clear
8:20 AM 48.2 °F 46.4 °F 93% 30.18 in 0.2 mi Calm Calm - N/A Fog Fog
8:50 AM 53.6 °F 51.8 °F 94% 30.01 in 1.0 mi Calm Calm - N/A   Clear
9:22 AM 59.0 °F 53.6 °F 82% 30.20 in 3.0 mi Calm Calm - N/A   Clear
9:52 AM 62.6 °F 53.6 °F 72% 30.20 in 3.0 mi Calm Calm - N/A   Clear
10:53 AM 69.8 °F 48.2 °F 46% 30.19 in 8.0 mi NNE 5.8 mph - N/A   Clear
11:51 AM 71.6 °F 48.2 °F 43% 29.92 in 8.0 mi WNW 13.8 mph - N/A   Partly Cloudy
12:50 PM 77.0 °F 42.8 °F 29% 30.13 in 10.0 mi SW 11.5 mph - N/A   Scattered Clouds
1:51 PM 77.0 °F 42.8 °F 29% 30.11 in 10.0 mi WNW 12.7 mph - N/A   Scattered Clouds
2:53 PM 78.8 °F 39.2 °F 24% 29.82 in 10.0 mi SSW 11.5 mph - N/A   Overcast
3:50 PM 77.0 °F 37.4 °F 24% 30.07 in 10.0 mi West 8.1 mph - N/A   Scattered Clouds
4:50 PM 77.0 °F 39.2 °F 26% 30.07 in 10.0 mi WSW 6.9 mph - N/A   Scattered Clouds
5:50 PM 75.2 °F 37.4 °F 25% 29.86 in 10.0 mi West 8.1 mph - N/A   Partly Cloudy
6:45 PM 68.0 °F 41.0 °F 37% 30.09 in 10.0 mi West 4.6 mph - N/A   Clear
7:51 PM 62.6 °F 39.2 °F 42% 30.11 in 10.0 mi WNW 5.8 mph - N/A   Clear
8:46 PM 60.8 °F 41.0 °F 48% 29.98 in 10.0 mi South 3.5 mph - N/A   Clear
9:52 PM 60.8 °F 46.4 °F 59% 30.15 in 10.0 mi West 6.9 mph - N/A   Clear
10:47 PM 57.2 °F 46.4 °F 67% 30.17 in 10.0 mi Calm Calm - N/A   Clear
11:48 PM 55.4 °F 46.4 °F 72% 29.92 in 10.0 mi Calm Calm - N/A   Clear